Flag for Lithuania Weather past 2 weeks in Kaunas, Lithuania

Now
32 °F

Overcast.


Feels Like: 24 °F
Forecast: 33 / 49 °F
Wind: 10 mph from South

Location: Kaunas

Current Time: Oct 26, 2014 at 6:57:21 AM

Latest Report: Oct 26, 2014 at 6:20 AM


Visibility: N/A

Pressure: 30.36 "Hg

Humidity: 47%

Dew point: 14 °F

Location of KaunasLocation

Historic Weather in Kaunas — Graph

°F

Kaunas temperature yesterday

Maximum temperature yesterday: 41 °F (at 4:20 PM)
Minimum temperature yesterday: 23 °F (at 8:20 AM)
Average temperature yesterday: 31 °F

Past Weeks' High & Low Weather Summary

 TemperatureHumidityPressure
High66 °F (Oct 12, 1:50 PM)100% (Oct 15, 4:20 AM)30.54 "Hg (Oct 15, 4:20 AM)
Low18 °F (Oct 24, 8:20 AM)20% (Oct 25, 4:20 PM)29.50 "Hg (Oct 20, 5:50 PM)
Average44 °F75%29.97 "Hg
* Reported Oct 11 6:20 AM — Oct 26 5:20 AM, Kaunas, Weather by CustomWeather, © 2014

Note: Actual official high and low records may vary slightly from our data, if they occured in-between our weather recording intervals... More about our weather records

Advertising

Kaunas weather history for previous 24 hours

 ConditionsComfort  
Time TempWeatherWind HumidityBarometerVisibility
5:20 AM
Oct 26
32 °FOvercast.12 mph44%30.36 "HgN/A
4:50 AM32 °FOvercast.10 mph44%30.36 "HgN/A
4:20 AM32 °FOvercast.13 mph44%30.36 "HgN/A
3:50 AM32 °FMostly cloudy.13 mph44%30.36 "HgN/A
3:20 AM32 °FOvercast.12 mph44%30.36 "HgN/A
3:50 AM32 °FPassing clouds.12 mph44%30.36 "HgN/A
3:20 AM32 °FPassing clouds.12 mph44%30.39 "HgN/A
2:50 AM32 °FChilly.9 mph44%30.39 "HgN/A
2:20 AM32 °FOvercast.10 mph40%30.39 "HgN/A
1:50 AM32 °FChilly.10 mph44%30.36 "HgN/A
1:20 AM32 °FChilly.12 mph40%30.36 "HgN/A
12:50 AM34 °FChilly.13 mph38%30.36 "HgN/A
12:20 AM32 °FChilly.10 mph44%30.36 "HgN/A
11:50 PM
Oct 25
34 °FPassing clouds.10 mph38%30.36 "HgN/A
11:20 PM34 °FPassing clouds.10 mph38%30.36 "HgN/A
10:50 PM34 °FPassing clouds.10 mph38%30.36 "HgN/A
10:20 PM34 °FPassing clouds.9 mph38%30.36 "HgN/A
9:50 PM34 °FPassing clouds.10 mph38%30.36 "HgN/A
9:20 PM34 °FPassing clouds.12 mph38%30.36 "HgN/A
8:50 PM34 °FPassing clouds.12 mph38%30.36 "HgN/A
8:20 PM34 °FClear.13 mph38%30.36 "Hg10 mi
7:50 PM36 °FPassing clouds.13 mph35%30.36 "HgN/A
7:20 PM34 °FPassing clouds.8 mph38%30.36 "HgN/A
6:50 PM36 °FSunny.8 mph35%30.36 "Hg10 mi
6:20 PM37 °FPassing clouds.10 mph30%30.36 "HgN/A
5:50 PM37 °FPassing clouds.10 mph28%30.36 "HgN/A
5:20 PM37 °FPassing clouds.10 mph26%30.36 "HgN/A
4:50 PM39 °FPassing clouds.10 mph24%30.39 "HgN/A
4:20 PM41 °FPassing clouds.12 mph20%30.39 "HgN/A
3:50 PM39 °FSunny.14 mph22%30.39 "Hg10 mi
3:20 PM39 °FPassing clouds.14 mph24%30.39 "HgN/A
2:50 PM39 °FSunny.15 mph24%30.39 "Hg10 mi
2:20 PM37 °FPassing clouds.15 mph28%30.42 "HgN/A
1:50 PM37 °FPassing clouds.13 mph28%30.42 "HgN/A
1:20 PM36 °FPassing clouds.14 mph30%30.45 "HgN/A
12:50 PM34 °FPassing clouds.13 mph35%30.45 "HgN/A
12:20 PM34 °FPassing clouds.12 mph38%30.45 "HgN/A
11:50 AM32 °FPassing clouds.12 mph40%30.45 "HgN/A
11:20 AM30 °FPassing clouds.10 mph43%30.48 "HgN/A
10:50 AM28 °FPassing clouds.10 mph47%30.48 "HgN/A
10:20 AM27 °FPassing clouds.9 mph50%30.48 "HgN/A
9:50 AM27 °FSunny.13 mph50%30.48 "Hg10 mi
9:20 AM25 °FPassing clouds.9 mph54%30.48 "HgN/A
8:50 AM25 °FPassing clouds.9 mph54%30.48 "HgN/A
8:20 AM23 °FPassing clouds.8 mph58%30.48 "HgN/A
7:50 AM25 °FClear.12 mph50%30.48 "Hg10 mi
7:20 AM25 °FPassing clouds.9 mph50%30.45 "HgN/A
6:50 AM25 °FPassing clouds.10 mph50%30.48 "HgN/A
6:20 AM25 °FClear.12 mph50%30.48 "Hg10 mi
Weather by CustomWeather, © 2014

See weather overviewHow to use our weather pages